TimeEST,TemperatureF,Dew PointF,Humidity,Sea Level PressureIn,VisibilityMPH,Wind Direction,Wind SpeedMPH,Gust SpeedMPH,PrecipitationIn,Events,Conditions,WindDirDegrees,DateUTC
12:15 AM,27.5,21.2,77,30.25,10.0,Calm,Calm,-,N/A,,Clear,0,2013-12-26 05:15:00
12:35 AM,26.4,21.6,82,30.25,10.0,Calm,Calm,-,N/A,,Clear,0,2013-12-26 05:35:00
12:55 AM,25.7,21.4,84,30.24,10.0,Calm,Calm,-,N/A,,Clear,0,2013-12-26 05:55:00
1:15 AM,25.5,21.0,83,30.24,10.0,Calm,Calm,-,N/A,,Clear,0,2013-12-26 06:15:00
1:35 AM,25.0,21.4,86,30.25,10.0,Calm,Calm,-,N/A,,Clear,0,2013-12-26 06:35:00
1:55 AM,24.4,21.2,87,30.25,10.0,Calm,Calm,-,N/A,,Clear,0,2013-12-26 06:55:00
2:15 AM,23.7,21.7,92,30.25,10.0,Calm,Calm,-,N/A,,Clear,0,2013-12-26 07:15:00
2:35 AM,24.6,21.7,89,30.25,10.0,Calm,Calm,-,N/A,,Clear,0,2013-12-26 07:35:00
2:55 AM,25.9,21.9,85,30.26,10.0,Calm,Calm,-,N/A,,Clear,0,2013-12-26 07:55:00
3:15 AM,27.3,21.6,79,30.27,10.0,West,3.5,-,N/A,,Clear,260,2013-12-26 08:15:00
3:35 AM,24.3,21.4,89,30.27,10.0,Calm,Calm,-,N/A,,Mostly Cloudy,0,2013-12-26 08:35:00
3:55 AM,24.8,22.3,90,30.27,10.0,Calm,Calm,-,N/A,,Scattered Clouds,0,2013-12-26 08:55:00
4:15 AM,24.8,21.9,89,30.27,10.0,Calm,Calm,-,N/A,,Scattered Clouds,0,2013-12-26 09:15:00
4:35 AM,23.5,21.2,91,30.26,10.0,Calm,Calm,-,N/A,,Scattered Clouds,0,2013-12-26 09:35:00
4:55 AM,25.3,22.6,89,30.26,10.0,Calm,Calm,-,N/A,,Overcast,0,2013-12-26 09:55:00
5:15 AM,25.5,23.0,90,30.27,10.0,Calm,Calm,-,N/A,,Overcast,0,2013-12-26 10:15:00
5:35 AM,28.0,23.7,84,30.27,10.0,NNW,3.5,-,N/A,,Overcast,340,2013-12-26 10:35:00
5:55 AM,28.4,24.4,85,30.28,10.0,Calm,Calm,-,N/A,,Overcast,0,2013-12-26 10:55:00
6:15 AM,28.6,25.0,86,30.28,10.0,Calm,Calm,-,N/A,,Overcast,0,2013-12-26 11:15:00
6:35 AM,29.3,24.6,83,30.27,10.0,West,3.5,-,N/A,,Overcast,260,2013-12-26 11:35:00
6:55 AM,28.9,24.8,84,30.28,10.0,Calm,Calm,-,N/A,,Overcast,0,2013-12-26 11:55:00
7:15 AM,30.0,23.5,77,30.28,10.0,West,5.8,-,N/A,,Overcast,270,2013-12-26 12:15:00
7:35 AM,28.4,23.5,82,30.28,10.0,West,3.5,-,N/A,,Scattered Clouds,270,2013-12-26 12:35:00
7:55 AM,28.2,23.5,83,30.29,10.0,West,5.8,-,N/A,,Clear,260,2013-12-26 12:55:00
8:15 AM,27.7,23.7,85,30.30,10.0,West,4.6,-,N/A,,Clear,270,2013-12-26 13:15:00
8:35 AM,30.0,24.3,79,30.30,10.0,West,6.9,-,N/A,,Clear,270,2013-12-26 13:35:00
8:55 AM,31.6,25.5,78,30.30,10.0,West,6.9,-,N/A,,Clear,270,2013-12-26 13:55:00
9:15 AM,32.4,26.4,79,30.31,10.0,West,6.9,-,N/A,,Clear,260,2013-12-26 14:15:00
9:35 AM,33.8,27.5,78,30.32,10.0,West,8.1,-,N/A,,Clear,260,2013-12-26 14:35:00
9:55 AM,34.7,28.4,78,30.32,10.0,West,8.1,-,N/A,,Clear,260,2013-12-26 14:55:00
10:15 AM,36.1,28.8,75,30.32,10.0,West,10.4,-,N/A,,Clear,260,2013-12-26 15:15:00
10:35 AM,37.8,29.5,72,30.33,10.0,West,10.4,-,N/A,,Clear,280,2013-12-26 15:35:00
10:55 AM,38.3,28.2,67,30.33,10.0,WNW,9.2,-,N/A,,Clear,290,2013-12-26 15:55:00
11:15 AM,39.2,27.7,63,30.33,10.0,WNW,8.1,-,N/A,,Clear,290,2013-12-26 16:15:00
11:35 AM,39.4,26.2,59,30.32,10.0,WNW,10.4,-,N/A,,Clear,300,2013-12-26 16:35:00
11:55 AM,40.1,26.2,58,30.32,10.0,WNW,10.4,-,N/A,,Clear,290,2013-12-26 16:55:00
12:15 PM,40.5,26.8,58,30.31,10.0,WNW,15.0,19.6,N/A,,Clear,290,2013-12-26 17:15:00
12:35 PM,40.6,27.3,59,30.30,10.0,WNW,12.7,16.1,N/A,,Clear,290,2013-12-26 17:35:00
12:55 PM,41.7,27.5,57,30.30,10.0,WNW,10.4,-,N/A,,Clear,290,2013-12-26 17:55:00
1:15 PM,41.9,27.3,56,30.29,10.0,NW,5.8,-,N/A,,Clear,320,2013-12-26 18:15:00
1:35 PM,41.9,27.3,56,30.28,10.0,WNW,8.1,-,N/A,,Clear,300,2013-12-26 18:35:00
1:55 PM,42.8,27.9,56,30.28,10.0,West,10.4,-,N/A,,Clear,280,2013-12-26 18:55:00
2:15 PM,43.0,27.5,54,30.28,10.0,NW,6.9,-,N/A,,Clear,310,2013-12-26 19:15:00
2:35 PM,43.0,26.2,52,30.27,10.0,North,8.1,-,N/A,,Clear,350,2013-12-26 19:35:00
2:55 PM,43.2,26.1,51,30.27,10.0,North,8.1,-,N/A,,Scattered Clouds,350,2013-12-26 19:55:00
3:15 PM,42.8,26.4,52,30.27,10.0,NW,5.8,-,N/A,,Scattered Clouds,320,2013-12-26 20:15:00
3:35 PM,43.3,26.6,52,30.27,10.0,West,6.9,-,N/A,,Clear,280,2013-12-26 20:35:00
3:55 PM,43.0,26.6,52,30.28,10.0,WNW,5.8,-,N/A,,Scattered Clouds,300,2013-12-26 20:55:00
4:15 PM,42.8,26.8,53,30.27,10.0,West,5.8,-,N/A,,Scattered Clouds,280,2013-12-26 21:15:00
4:35 PM,42.3,26.4,54,30.28,10.0,WNW,4.6,-,N/A,,Clear,290,2013-12-26 21:35:00
4:55 PM,41.0,26.6,57,30.28,10.0,West,4.6,-,N/A,,Scattered Clouds,260,2013-12-26 21:55:00
5:15 PM,40.6,26.6,57,30.29,10.0,Calm,Calm,-,N/A,,Overcast,0,2013-12-26 22:15:00
5:35 PM,38.8,27.1,63,30.29,10.0,Calm,Calm,-,N/A,,Scattered Clouds,0,2013-12-26 22:35:00
5:55 PM,36.7,27.1,68,30.30,10.0,NNW,3.5,-,N/A,,Clear,340,2013-12-26 22:55:00
6:15 PM,34.9,26.8,72,30.31,10.0,NNW,3.5,-,N/A,,Scattered Clouds,330,2013-12-26 23:15:00
6:35 PM,34.3,26.4,73,30.31,10.0,Calm,Calm,-,N/A,,Scattered Clouds,0,2013-12-26 23:35:00
6:55 PM,32.7,26.4,78,30.32,10.0,Calm,Calm,-,N/A,,Scattered Clouds,0,2013-12-26 23:55:00
7:15 PM,32.9,25.0,73,30.32,10.0,Calm,Calm,-,N/A,,Clear,0,2013-12-27 00:15:00
7:35 PM,32.0,24.4,74,30.33,10.0,Calm,Calm,-,N/A,,Clear,0,2013-12-27 00:35:00
7:55 PM,31.1,24.6,77,30.33,10.0,Calm,Calm,-,N/A,,Clear,0,2013-12-27 00:55:00
8:15 PM,30.6,24.4,78,30.34,10.0,South,3.5,-,N/A,,Clear,180,2013-12-27 01:15:00
8:35 PM,31.5,24.6,76,30.33,10.0,Calm,Calm,-,N/A,,Clear,0,2013-12-27 01:35:00
8:55 PM,32.0,24.6,74,30.34,10.0,Calm,Calm,-,N/A,,Clear,0,2013-12-27 01:55:00
9:15 PM,30.4,24.1,77,30.34,10.0,Calm,Calm,-,N/A,,Clear,0,2013-12-27 02:15:00
9:35 PM,30.7,23.5,75,30.34,10.0,Calm,Calm,-,N/A,,Clear,0,2013-12-27 02:35:00
9:55 PM,29.3,23.4,78,30.34,10.0,Calm,Calm,-,N/A,,Clear,0,2013-12-27 02:55:00
10:15 PM,29.3,23.5,79,30.34,10.0,Calm,Calm,-,N/A,,Clear,0,2013-12-27 03:15:00
10:35 PM,28.8,23.7,81,30.34,10.0,Calm,Calm,-,N/A,,Clear,0,2013-12-27 03:35:00
10:55 PM,28.9,23.4,80,30.35,10.0,East,3.5,-,N/A,,Clear,90,2013-12-27 03:55:00
11:15 PM,30.0,23.4,76,30.34,10.0,Calm,Calm,-,N/A,,Clear,0,2013-12-27 04:15:00
11:35 PM,29.7,23.0,76,30.34,10.0,Calm,Calm,-,N/A,,Clear,0,2013-12-27 04:35:00
11:55 PM,29.3,22.8,77,30.34,10.0,Calm,Calm,-,N/A,,Clear,0,2013-12-27 04:55:00